Private Wetterstation Sandau
Wetterdaten: Woche 17.12.12 - 23.12.12 (KW51)
Datum Zeit Temp. A. Feuchte A. Luftdruck Regen Wind Richtung Taupunkt Windchill
17.12.2012 00:00 3,4 C 94 % 1006,0 hPa 0,0 l/m 1,4 km/h (1 Bft) S-SO 2,5 C 3,4 C
17.12.2012 01:00 3,3 C 94 % 1006,0 hPa 0,0 l/m 0,9 km/h (0 Bft) S-SO 2,5 C 3,3 C
17.12.2012 02:00 3,3 C 94 % 1005,9 hPa 0,0 l/m 3,5 km/h (1 Bft) S-SO 2,4 C 2,8 C
17.12.2012 03:00 3,1 C 95 % 1006,1 hPa 0,0 l/m 0,9 km/h (0 Bft) S-SO 2,3 C 2,9 C
17.12.2012 04:00 2,8 C 94 % 1006,1 hPa 0,0 l/m 1,8 km/h (1 Bft) S 1,9 C 2,7 C
17.12.2012 05:00 2,7 C 94 % 1006,0 hPa 0,0 l/m 2,0 km/h (1 Bft) S-SO 1,8 C 2,7 C
17.12.2012 06:00 2,6 C 94 % 1006,2 hPa 0,0 l/m 2,4 km/h (1 Bft) S-SO 1,7 C 2,4 C
17.12.2012 07:00 2,6 C 94 % 1006,2 hPa 0,0 l/m 1,3 km/h (1 Bft) O-SO 1,7 C 2,6 C
17.12.2012 08:00 2,5 C 94 % 1006,6 hPa 0,5 l/m 0,4 km/h (0 Bft) SO 1,6 C 2,5 C
17.12.2012 09:00 2,7 C 94 % 1007,0 hPa 0,0 l/m 0,3 km/h (0 Bft) S-SO 1,8 C 2,7 C
17.12.2012 10:00 3,1 C 95 % 1007,2 hPa 0,0 l/m 2,2 km/h (1 Bft) S-SO 2,3 C 2,9 C
17.12.2012 11:00 3,2 C 95 % 1007,2 hPa 0,0 l/m 2,0 km/h (1 Bft) O-SO 2,5 C 3,2 C
17.12.2012 12:00 3,3 C 95 % 1007,1 hPa 0,0 l/m 2,1 km/h (1 Bft) O-SO 2,5 C 3,3 C
17.12.2012 13:00 3,4 C 94 % 1007,0 hPa 0,0 l/m 4,4 km/h (1 Bft) O-SO 2,5 C 2,6 C
17.12.2012 14:00 3,6 C 94 % 1006,9 hPa 0,0 l/m 4,8 km/h (1 Bft) O-SO 2,7 C 2,8 C
17.12.2012 15:00 3,5 C 94 % 1007,1 hPa 0,0 l/m 4,9 km/h (1 Bft) O-SO 2,6 C 2,7 C
17.12.2012 16:00 2,9 C 95 % 1007,2 hPa 0,0 l/m 5,1 km/h (1 Bft) O-SO 2,1 C 1,9 C
17.12.2012 17:00 2,6 C 94 % 1007,4 hPa 0,0 l/m 3,3 km/h (1 Bft) O-SO 1,7 C 2,3 C
17.12.2012 18:00 2,7 C 94 % 1007,2 hPa 0,0 l/m 3,9 km/h (1 Bft) SO 1,9 C 2,3 C
17.12.2012 19:00 2,8 C 95 % 1007,3 hPa 0,0 l/m 4,4 km/h (1 Bft) SO 2,1 C 2,1 C
17.12.2012 20:00 3,0 C 95 % 1007,4 hPa 0,0 l/m 4,7 km/h (1 Bft) SO 2,2 C 2,2 C
17.12.2012 21:00 2,5 C 95 % 1007,4 hPa 0,0 l/m 3,9 km/h (1 Bft) SO 1,8 C 2,2 C
17.12.2012 22:00 2,3 C 95 % 1007,6 hPa 0,0 l/m 3,9 km/h (1 Bft) O-SO 1,6 C 1,8 C
17.12.2012 23:00 2,1 C 95 % 1007,9 hPa 0,0 l/m 3,8 km/h (1 Bft) O-SO 1,4 C 1,9 C
18.12.2012 00:00 2,1 C 95 % 1008,0 hPa 0,0 l/m 4,2 km/h (1 Bft) O-SO 1,4 C 1,6 C
18.12.2012 01:00 1,9 C 95 % 1008,1 hPa 0,0 l/m 3,7 km/h (1 Bft) O-SO 1,2 C 1,4 C
18.12.2012 02:00 2,1 C 95 % 1008,4 hPa 0,0 l/m 3,6 km/h (1 Bft) O-SO 1,4 C 1,6 C
18.12.2012 03:00 2,5 C 95 % 1008,5 hPa 0,0 l/m 4,4 km/h (1 Bft) O-SO 1,7 C 1,8 C
18.12.2012 04:00 2,4 C 95 % 1008,8 hPa 0,0 l/m 3,4 km/h (1 Bft) SO 1,7 C 1,9 C
18.12.2012 05:00 2,4 C 95 % 1009,0 hPa 0,0 l/m 2,9 km/h (1 Bft) SO 1,7 C 1,9 C
18.12.2012 06:00 2,3 C 95 % 1009,5 hPa 0,0 l/m 3,0 km/h (1 Bft) O-SO 1,6 C 2,3 C
18.12.2012 07:00 2,2 C 96 % 1010,1 hPa 0,0 l/m 1,4 km/h (1 Bft) O-SO 1,5 C 2,0 C
18.12.2012 08:00 2,2 C 96 % 1010,9 hPa 0,0 l/m 2,7 km/h (1 Bft) O-SO 1,6 C 2,1 C
18.12.2012 09:00 2,2 C 96 % 1011,6 hPa 0,0 l/m 3,1 km/h (1 Bft) O-SO 1,6 C 1,8 C
18.12.2012 10:00 2,4 C 96 % 1012,2 hPa 0,0 l/m 4,3 km/h (1 Bft) O-SO 1,8 C 1,6 C
18.12.2012 11:00 2,7 C 96 % 1012,7 hPa 0,0 l/m 3,3 km/h (1 Bft) O-SO 2,1 C 2,2 C
18.12.2012 12:00 2,8 C 96 % 1013,0 hPa 0,0 l/m 1,7 km/h (1 Bft) NO 2,2 C 2,8 C
18.12.2012 13:00 3,0 C 95 % 1013,4 hPa 0,0 l/m 0,3 km/h (0 Bft) O-NO 2,3 C 3,0 C
18.12.2012 14:00 3,3 C 95 % 1013,9 hPa 0,0 l/m 1,3 km/h (1 Bft) NO 2,6 C 3,2 C
18.12.2012 15:00 3,1 C 95 % 1014,6 hPa 0,0 l/m 1,6 km/h (1 Bft) O-NO 2,4 C 3,1 C
18.12.2012 16:00 2,8 C 95 % 1015,5 hPa 0,5 l/m 1,2 km/h (1 Bft) O-NO 2,0 C 2,8 C
18.12.2012 17:00 2,6 C 94 % 1016,2 hPa 0,0 l/m 0,7 km/h (0 Bft) O-NO 1,7 C 2,6 C
18.12.2012 18:00 2,6 C 94 % 1016,7 hPa 0,5 l/m 0,2 km/h (0 Bft) O-NO 1,7 C 2,6 C
18.12.2012 19:00 2,5 C 94 % 1017,3 hPa 0,5 l/m 0,1 km/h (0 Bft) O-NO 1,6 C 2,5 C
18.12.2012 20:00 2,5 C 94 % 1017,9 hPa 0,0 l/m 0,6 km/h (0 Bft) O-NO 1,7 C 2,5 C
18.12.2012 21:00 2,6 C 95 % 1018,5 hPa 0,5 l/m 0,0 km/h (0 Bft) N 1,8 C 2,6 C
18.12.2012 22:00 2,4 C 95 % 1019,1 hPa 0,0 l/m 0,0 km/h (0 Bft) N 1,7 C 2,4 C
18.12.2012 23:00 2,3 C 95 % 1019,7 hPa 0,5 l/m 0,7 km/h (0 Bft) NO 1,6 C 2,3 C
19.12.2012 00:00 2,1 C 95 % 1020,3 hPa 0,0 l/m 2,1 km/h (1 Bft) NO 1,4 C 2,1 C
19.12.2012 01:00 1,9 C 95 % 1020,8 hPa 0,0 l/m 1,4 km/h (1 Bft) O-NO 1,2 C 1,9 C
19.12.2012 02:00 1,9 C 95 % 1021,2 hPa 0,0 l/m 0,9 km/h (0 Bft) O-NO 1,2 C 1,9 C
19.12.2012 03:00 1,8 C 95 % 1021,5 hPa 0,0 l/m 1,3 km/h (1 Bft) O-NO 1,1 C 1,8 C
19.12.2012 04:00 1,7 C 95 % 1021,7 hPa 0,0 l/m 1,0 km/h (0 Bft) NO 1,0 C 1,7 C
19.12.2012 05:00 1,6 C 95 % 1022,0 hPa 0,0 l/m 0,6 km/h (0 Bft) NO 0,9 C 1,6 C
19.12.2012 06:00 1,7 C 95 % 1022,6 hPa 0,0 l/m 1,1 km/h (1 Bft) O-NO 1,0 C 1,7 C
19.12.2012 07:00 1,6 C 95 % 1023,3 hPa 0,0 l/m 0,9 km/h (0 Bft) O-NO 0,9 C 1,6 C
19.12.2012 08:00 1,6 C 95 % 1024,0 hPa 0,0 l/m 0,2 km/h (0 Bft) NO 0,9 C 1,6 C
19.12.2012 09:00 1,7 C 95 % 1024,5 hPa 0,0 l/m 1,0 km/h (0 Bft) NO 1,0 C 1,7 C
19.12.2012 10:00 1,9 C 95 % 1025,1 hPa 0,0 l/m 2,2 km/h (1 Bft) NO 1,1 C 1,9 C
19.12.2012 11:00 1,9 C 94 % 1025,2 hPa 0,0 l/m 2,7 km/h (1 Bft) NO 1,0 C 1,8 C
19.12.2012 12:00 2,1 C 94 % 1025,3 hPa 0,0 l/m 4,7 km/h (1 Bft) O-NO 1,2 C 1,3 C
19.12.2012 13:00 2,3 C 94 % 1025,5 hPa 0,0 l/m 3,4 km/h (1 Bft) O-NO 1,4 C 1,8 C
19.12.2012 14:00 2,3 C 94 % 1025,5 hPa 0,0 l/m 2,2 km/h (1 Bft) O-NO 1,4 C 2,0 C
19.12.2012 15:00 2,1 C 94 % 1025,9 hPa 0,0 l/m 2,3 km/h (1 Bft) O-NO 1,3 C 2,0 C
19.12.2012 16:00 2,1 C 94 % 1026,5 hPa 0,0 l/m 1,1 km/h (1 Bft) O-SO 1,2 C 2,1 C
19.12.2012 17:00 2,0 C 94 % 1026,9 hPa 0,0 l/m 2,7 km/h (1 Bft) O-NO 1,2 C 1,9 C
19.12.2012 18:00 1,9 C 94 % 1027,0 hPa 0,0 l/m 2,4 km/h (1 Bft) NO 1,0 C 1,8 C
19.12.2012 19:00 1,9 C 95 % 1027,2 hPa 0,0 l/m 3,2 km/h (1 Bft) SO 1,2 C 1,4 C
19.12.2012 20:00 1,9 C 95 % 1027,3 hPa 0,0 l/m 4,4 km/h (1 Bft) O-SO 1,2 C 0,9 C
19.12.2012 21:00 1,8 C 95 % 1027,4 hPa 0,0 l/m 4,3 km/h (1 Bft) O-NO 1,1 C 1,0 C
19.12.2012 22:00 1,6 C 95 % 1027,4 hPa 0,0 l/m 4,6 km/h (1 Bft) O-SO 0,9 C 0,9 C
19.12.2012 23:00 1,5 C 95 % 1027,3 hPa 0,0 l/m 6,3 km/h (2 Bft) O-SO 0,8 C -0,0 C
20.12.2012 00:00 1,4 C 95 % 1027,3 hPa 0,0 l/m 5,3 km/h (1 Bft) O-SO 0,7 C 0,1 C
20.12.2012 01:00 1,3 C 95 % 1027,4 hPa 0,0 l/m 4,7 km/h (1 Bft) O-SO 0,6 C 0,4 C
20.12.2012 02:00 1,3 C 94 % 1027,2 hPa 0,0 l/m 5,9 km/h (2 Bft) O-SO 0,4 C -0,3 C
20.12.2012 03:00 1,3 C 94 % 1026,7 hPa 0,0 l/m 7,1 km/h (2 Bft) O-SO 0,4 C -0,6 C
20.12.2012 04:00 1,3 C 95 % 1026,1 hPa 0,0 l/m 6,9 km/h (2 Bft) O-SO 0,5 C -0,7 C
20.12.2012 05:00 1,3 C 95 % 1025,8 hPa 0,0 l/m 5,5 km/h (1 Bft) SO 0,5 C -0,1 C
20.12.2012 06:00 1,3 C 95 % 1025,7 hPa 0,0 l/m 5,6 km/h (1 Bft) O-SO 0,6 C -0,3 C
20.12.2012 07:00 1,2 C 95 % 1025,4 hPa 0,0 l/m 6,1 km/h (2 Bft) O-SO 0,5 C -0,2 C
20.12.2012 08:00 1,2 C 95 % 1025,1 hPa 0,0 l/m 9,2 km/h (2 Bft) O-SO 0,5 C -1,4 C
20.12.2012 09:00 1,3 C 95 % 1024,7 hPa 0,0 l/m 7,9 km/h (2 Bft) SO 0,6 C -0,9 C
20.12.2012 10:00 1,3 C 95 % 1024,6 hPa 0,0 l/m 8,2 km/h (2 Bft) O-SO 0,6 C -1,1 C
20.12.2012 11:00 1,5 C 95 % 1024,1 hPa 0,0 l/m 7,5 km/h (2 Bft) O-SO 0,8 C -0,5 C
20.12.2012 12:00 1,8 C 95 % 1023,1 hPa 0,0 l/m 9,2 km/h (2 Bft) O-SO 1,1 C -0,8 C
20.12.2012 13:00 1,8 C 94 % 1022,6 hPa 0,0 l/m 8,0 km/h (2 Bft) O-SO 1,0 C -0,3 C
20.12.2012 14:00 1,8 C 93 % 1022,0 hPa 0,0 l/m 11,1 km/h (2 Bft) O-SO 0,9 C -1,2 C
20.12.2012 15:00 1,8 C 93 % 1021,6 hPa 0,0 l/m 10,3 km/h (2 Bft) O-SO 0,8 C -1,1 C
20.12.2012 16:00 1,7 C 93 % 1021,2 hPa 0,0 l/m 10,7 km/h (2 Bft) O-SO 0,7 C -1,3 C
20.12.2012 17:00 1,6 C 92 % 1020,8 hPa 0,0 l/m 12,9 km/h (3 Bft) SO 0,5 C -1,9 C
20.12.2012 18:00 1,5 C 91 % 1020,4 hPa 0,0 l/m 12,2 km/h (3 Bft) O 0,2 C -1,6 C
20.12.2012 19:00 1,3 C 91 % 1019,8 hPa 0,0 l/m 10,6 km/h (2 Bft) O-SO 0,0 C -1,8 C
20.12.2012 20:00 1,2 C 90 % 1019,3 hPa 0,0 l/m 10,4 km/h (2 Bft) SO -0,2 C -1,8 C
20.12.2012 21:00 0,9 C 90 % 1019,0 hPa 0,0 l/m 8,9 km/h (2 Bft) SO -0,5 C -1,8 C
20.12.2012 22:00 0,9 C 90 % 1018,5 hPa 0,0 l/m 9,2 km/h (2 Bft) SO -0,6 C -1,8 C
20.12.2012 23:00 0,6 C 90 % 1018,2 hPa 0,0 l/m 11,6 km/h (2 Bft) O-SO -0,8 C -2,8 C
21.12.2012 00:00 0,3 C 90 % 1017,9 hPa 0,0 l/m 7,5 km/h (2 Bft) O-NO -1,1 C -2,0 C
21.12.2012 01:00 0,2 C 87 % 1017,6 hPa 0,0 l/m 11,7 km/h (2 Bft) O-NO -1,7 C -3,3 C
21.12.2012 02:00 -0,1 C 84 % 1017,4 hPa 0,0 l/m 9,3 km/h (2 Bft) O-NO -2,5 C -2,9 C
21.12.2012 03:00 -0,2 C 84 % 1017,1 hPa 0,0 l/m 8,0 km/h (2 Bft) O-NO -2,6 C -2,5 C
21.12.2012 04:00 -0,4 C 83 % 1016,6 hPa 0,0 l/m 11,1 km/h (2 Bft) O-NO -3,0 C -3,9 C
21.12.2012 05:00 -0,7 C 81 % 1016,3 hPa 0,0 l/m 13,0 km/h (3 Bft) O-NO -3,6 C -4,7 C
21.12.2012 06:00 -0,9 C 81 % 1016,1 hPa 0,0 l/m 9,8 km/h (2 Bft) O-NO -3,8 C -4,2 C
21.12.2012 07:00 -1,3 C 82 % 1016,2 hPa 0,0 l/m 9,5 km/h (2 Bft) O-NO -4,0 C -4,2 C
21.12.2012 08:00 -1,6 C 82 % 1016,4 hPa 0,0 l/m 9,3 km/h (2 Bft) O-NO -4,4 C -4,8 C
21.12.2012 09:00 -1,9 C 82 % 1016,9 hPa 0,0 l/m 10,4 km/h (2 Bft) O-NO -4,6 C -5,5 C
21.12.2012 10:00 -2,0 C 81 % 1016,9 hPa 0,0 l/m 9,4 km/h (2 Bft) O-NO -4,9 C -4,9 C
21.12.2012 11:00 -2,1 C 81 % 1016,9 hPa 0,0 l/m 9,8 km/h (2 Bft) O-NO -4,9 C -5,5 C
21.12.2012 12:00 -2,1 C 82 % 1017,0 hPa 0,0 l/m 9,8 km/h (2 Bft) O-NO -4,8 C -5,5 C
21.12.2012 13:00 -2,1 C 82 % 1016,9 hPa 0,0 l/m 9,1 km/h (2 Bft) O-NO -4,7 C -4,9 C
21.12.2012 14:00 -2,1 C 83 % 1017,0 hPa 0,0 l/m 6,3 km/h (2 Bft) O-NO -4,5 C -3,8 C
21.12.2012 15:00 -2,1 C 85 % 1017,4 hPa 0,0 l/m 7,3 km/h (2 Bft) O-NO -4,3 C -4,7 C
21.12.2012 16:00 -2,3 C 86 % 1017,8 hPa 0,0 l/m 6,8 km/h (2 Bft) O-NO -4,3 C -4,9 C
21.12.2012 17:00 -2,6 C 86 % 1018,2 hPa 0,0 l/m 10,5 km/h (2 Bft) O-NO -4,7 C -6,2 C
21.12.2012 18:00 -3,1 C 86 % 1018,9 hPa 0,0 l/m 7,7 km/h (2 Bft) O-NO -5,1 C -5,8 C
21.12.2012 19:00 -3,6 C 88 % 1019,5 hPa 0,0 l/m 7,1 km/h (2 Bft) O-NO -5,3 C -6,2 C
21.12.2012 20:00 -3,7 C 88 % 1019,9 hPa 0,0 l/m 7,2 km/h (2 Bft) O-NO -5,4 C -6,3 C
21.12.2012 21:00 -3,5 C 88 % 1020,2 hPa 0,0 l/m 5,1 km/h (1 Bft) O-NO -5,2 C -4,9 C
21.12.2012 22:00 -3,3 C 88 % 1020,4 hPa 0,0 l/m 7,5 km/h (2 Bft) O-NO -5,0 C -6,0 C
21.12.2012 23:00 -3,3 C 88 % 1020,7 hPa 0,0 l/m 8,5 km/h (2 Bft) O-NO -5,0 C -6,5 C
22.12.2012 00:00 -3,2 C 88 % 1021,0 hPa 0,0 l/m 7,6 km/h (2 Bft) O-NO -4,9 C -5,8 C
22.12.2012 01:00 -3,1 C 87 % 1021,2 hPa 0,0 l/m 9,2 km/h (2 Bft) O-NO -4,9 C -6,5 C
22.12.2012 02:00 -2,9 C 87 % 1021,4 hPa 0,0 l/m 7,7 km/h (2 Bft) O-NO -4,8 C -5,8 C
22.12.2012 03:00 -3,0 C 87 % 1021,4 hPa 0,0 l/m 7,7 km/h (2 Bft) O-NO -4,9 C -5,5 C
22.12.2012 04:00 -2,9 C 87 % 1021,2 hPa 0,0 l/m 7,9 km/h (2 Bft) O-NO -4,8 C -6,0 C
22.12.2012 05:00 -2,7 C 87 % 1021,1 hPa 0,0 l/m 6,0 km/h (2 Bft) O-NO -4,6 C -4,8 C
22.12.2012 06:00 -2,7 C 87 % 1020,7 hPa 0,0 l/m 11,1 km/h (2 Bft) O-NO -4,6 C -6,6 C
22.12.2012 07:00 -2,8 C 86 % 1020,5 hPa 0,0 l/m 8,1 km/h (2 Bft) O-NO -4,8 C -5,4 C
22.12.2012 08:00 -2,8 C 86 % 1020,6 hPa 0,0 l/m 11,0 km/h (2 Bft) O-NO -4,8 C -6,7 C
22.12.2012 09:00 -2,9 C 88 % 1020,8 hPa 0,0 l/m 6,4 km/h (2 Bft) O-NO -4,6 C -5,2 C
22.12.2012 10:00 -2,8 C 89 % 1020,6 hPa 0,0 l/m 10,6 km/h (2 Bft) O-NO -4,4 C -6,7 C
22.12.2012 11:00 -2,7 C 89 % 1019,8 hPa 0,0 l/m 9,3 km/h (2 Bft) O-NO -4,2 C -6,2 C
22.12.2012 12:00 -2,5 C 90 % 1019,1 hPa 0,0 l/m 8,2 km/h (2 Bft) O-NO -3,9 C -5,6 C
22.12.2012 13:00 -2,4 C 90 % 1018,5 hPa 0,0 l/m 8,4 km/h (2 Bft) O-NO -3,8 C -5,6 C
22.12.2012 14:00 -2,4 C 90 % 1018,1 hPa 0,0 l/m 9,5 km/h (2 Bft) O-NO -3,8 C -5,9 C
22.12.2012 15:00 -2,4 C 91 % 1017,7 hPa 0,0 l/m 9,9 km/h (2 Bft) O-NO -3,7 C -5,8 C
22.12.2012 16:00 -2,3 C 91 % 1017,5 hPa 0,0 l/m 6,8 km/h (2 Bft) O-NO -3,5 C -4,5 C
22.12.2012 17:00 -2,2 C 91 % 1016,7 hPa 0,0 l/m 8,5 km/h (2 Bft) O-NO -3,5 C -5,1 C
22.12.2012 18:00 -2,1 C 92 % 1016,0 hPa 0,0 l/m 7,3 km/h (2 Bft) O-NO -3,3 C -4,7 C
22.12.2012 19:00 -1,9 C 91 % 1015,7 hPa 0,0 l/m 9,2 km/h (2 Bft) O-NO -3,2 C -5,2 C
22.12.2012 20:00 -1,9 C 92 % 1015,1 hPa 0,0 l/m 11,1 km/h (2 Bft) O-NO -3,1 C -5,6 C
22.12.2012 21:00 -1,9 C 92 % 1014,6 hPa 0,0 l/m 13,4 km/h (3 Bft) O-NO -3,0 C -6,3 C
22.12.2012 22:00 -1,9 C 93 % 1014,4 hPa 0,0 l/m 9,5 km/h (2 Bft) O-NO -2,9 C -5,3 C
22.12.2012 23:00 -1,9 C 93 % 1014,1 hPa 0,0 l/m 12,6 km/h (3 Bft) O-NO -2,9 C -6,2 C
23.12.2012 00:00 -2,0 C 93 % 1013,3 hPa 0,0 l/m 11,0 km/h (2 Bft) O-NO -2,9 C -5,8 C
23.12.2012 01:00 -2,0 C 93 % 1012,5 hPa 0,0 l/m 12,8 km/h (3 Bft) O-NO -2,9 C -6,2 C
23.12.2012 02:00 -1,7 C 93 % 1012,3 hPa 0,0 l/m 12,0 km/h (2 Bft) O-NO -2,7 C -5,5 C
23.12.2012 03:00 -1,3 C 93 % 1011,7 hPa 0,0 l/m 10,6 km/h (2 Bft) O-NO -2,3 C -4,9 C
23.12.2012 04:00 -1,2 C 93 % 1010,8 hPa 0,0 l/m 15,2 km/h (3 Bft) O-NO -2,2 C -5,8 C
23.12.2012 05:00 -1,2 C 93 % 1010,3 hPa 0,0 l/m 12,8 km/h (3 Bft) O-NO -2,2 C -5,3 C
23.12.2012 06:00 -1,1 C 93 % 1009,9 hPa 0,0 l/m 13,1 km/h (3 Bft) O-NO -2,1 C -5,2 C
23.12.2012 07:00 -1,1 C 93 % 1009,2 hPa 0,0 l/m 11,9 km/h (2 Bft) O-NO -2,1 C -5,0 C
23.12.2012 08:00 -1,1 C 93 % 1009,1 hPa 0,0 l/m 10,6 km/h (2 Bft) O-NO -2,1 C -4,7 C
23.12.2012 09:00 -1,1 C 93 % 1008,5 hPa 0,0 l/m 11,1 km/h (2 Bft) O-NO -2,1 C -4,8 C
23.12.2012 10:00 -0,8 C 93 % 1007,8 hPa 0,0 l/m 13,6 km/h (3 Bft) O-NO -1,8 C -5,0 C
23.12.2012 11:00 -0,3 C 93 % 1006,9 hPa 0,0 l/m 11,0 km/h (2 Bft) O-NO -1,4 C -3,8 C
23.12.2012 12:00 -0,2 C 92 % 1005,9 hPa 0,0 l/m 1,2 km/h (1 Bft) N -1,3 C -0,5 C
23.12.2012 13:00 -0,1 C 93 % 1005,0 hPa 0,0 l/m 0,0 km/h (0 Bft) N -1,1 C -0,1 C
23.12.2012 14:00 0,1 C 93 % 1004,7 hPa 0,0 l/m 0,0 km/h (0 Bft) N -0,9 C 0,1 C
23.12.2012 15:00 0,3 C 93 % 1004,8 hPa 0,0 l/m 0,0 km/h (0 Bft) N -0,7 C 0,3 C
23.12.2012 16:00 0,4 C 94 % 1004,7 hPa 0,0 l/m 0,0 km/h (0 Bft) N -0,5 C 0,4 C
23.12.2012 17:00 0,5 C 94 % 1004,7 hPa 0,0 l/m 0,0 km/h (0 Bft) N -0,4 C 0,5 C
23.12.2012 18:00 0,6 C 94 % 1005,0 hPa 0,0 l/m 0,0 km/h (0 Bft) N -0,3 C 0,6 C
23.12.2012 19:00 0,6 C 94 % 1005,2 hPa 0,0 l/m 0,0 km/h (0 Bft) N -0,2 C 0,6 C
23.12.2012 20:00 0,9 C 94 % 1005,5 hPa 0,0 l/m 0,0 km/h (0 Bft) N 0,0 C 0,9 C
23.12.2012 21:00 1,1 C 94 % 1005,6 hPa 0,0 l/m 0,0 km/h (0 Bft) N 0,2 C 1,1 C
23.12.2012 22:00 1,4 C 94 % 1006,0 hPa 0,5 l/m 0,4 km/h (0 Bft) O-NO 0,6 C 1,4 C
23.12.2012 23:00 2,0 C 94 % 1006,3 hPa 0,5 l/m 2,6 km/h (1 Bft) O-NO 1,1 C 1,4 C
Min-Datum _ 21.12.12 21.12.12 23.12.12 - 17.12.12 - 21.12.12 22.12.12
_ Min-Zeit 19:41 10:46 15:16 - 00:01 - 19:26 08:41
Minimum _ -3,7 C 80 % 1004,3 hPa - 0,0 km/h (0 Bft) - -5,4 C -9,2 C
Max-Datum _ 17.12.12 18.12.12 20.12.12 17.12.12 23.12.12 - 17.12.12 17.12.12
_ Max-Zeit 13:56 06:46 01:06 08:01 10:21 - 13:56 13:56
Maximum _ 3,6 C 96 % 1027,6 hPa 0,5 l/m 26,6 km/h
O-NO (4 Bft)
- 2,7 C 3,6 C
Durchschnitt _ 0,6 C 92 % 1016,0 hPa #4,1 l/m 5,7 km/h (1 Bft) O-NO -0,6 C -1,0 C
(c) by David Heller